EW1392 Weather Reports


time (UTC)temp
C
wind
direction
speed
KPH
gust
KPH
rain 1hr
cm
rain 24hr
cm
rain mn
cm
humidity
%
barometer
mb
20260504201535 28 306 0.0 4.8 0.00 0.00 0.00 28 1005.5
20260504200032 27 44 3.2 6.4 0.00 0.00 0.00 26 1005.8
20260504194528 27 14 0.0 3.2 0.00 0.00 0.00 29 1006.0
20260504193025 27 123 0.0 4.8 0.00 0.00 0.00 30 1006.1
20260504191521 26 222 0.0 3.2 0.00 0.00 0.00 30 1006.3
20260504190018 26 96 0.0 1.6 0.00 0.00 0.00 30 1006.5
20260504184517 25 96 0.0 3.2 0.00 0.00 0.00 30 1006.8
20260504183011 24 201 0.0 4.8 0.00 0.00 0.00 36 1006.9
20260504181508 23 258 0.0 1.6 0.00 0.00 0.00 38 1007.0
20260504180006 22 257 0.0 0.0 0.00 0.00 0.00 36 1007.4
20260504174501 22 280 0.0 0.0 0.00 0.00 0.00 44 1007.6
20260504173108 21 280 0.0 1.6 0.00 0.00 0.00 49 1007.6
20260504171602 20 216 0.0 3.2 0.00 0.00 0.00 46 1007.8
20260504081549 8 294 0.0 0.0 0.00 0.00 0.00 87 1008.9
20260504044535 14 294 0.0 0.0 0.00 0.00 0.00 73 1008.2
20260504043034 15 294 0.0 0.0 0.00 0.00 0.00 71 1008.1
20260504041541 16 294 0.0 0.0 0.00 0.00 0.00 69 1008.1
20260504040039 16 294 0.0 0.0 0.00 0.00 0.00 66 1007.9
20260504034541 17 294 0.0 0.0 0.00 0.00 0.00 63 1007.8
20260504033032 18 294 0.0 0.0 0.00 0.00 0.00 60 1007.4
20260504031533 20 294 0.0 0.0 0.00 0.00 0.00 56 1007.2
20260504030035 21 294 0.0 0.0 0.00 0.00 0.00 52 1007.1
20260504024531 22 294 0.0 0.0 0.00 0.00 0.00 48 1007.0
20260504023030 23 324 0.0 4.8 0.00 0.00 0.00 42 1006.9
20260504021530 23 160 0.0 3.2 0.00 0.00 0.00 39 1006.9
20260504020036 25 200 0.0 1.6 0.00 0.00 0.00 35 1006.9
20260504014531 25 203 0.0 4.8 0.00 0.00 0.00 33 1006.9
20260504013032 26 221 0.0 1.6 0.00 0.00 0.00 33 1007.0
20260504011526 26 205 0.0 8.0 0.00 0.00 0.00 29 1007.0
20260504010025 27 213 0.0 4.8 0.00 0.00 0.00 29 1007.0
20260504004525 27 225 0.0 6.4 0.00 0.00 0.00 26 1007.0
20260504003023 27 200 1.6 6.4 0.00 0.00 0.00 24 1007.1
20260504001530 27 12 0.0 3.2 0.00 0.00 0.00 28 1007.2
20260504000022 28 32 0.0 3.2 0.00 0.00 0.00 24 1007.3
20260503234521 28 213 1.6 9.7 0.00 0.00 0.00 23 1007.4
20260503233020 28 38 0.0 3.2 0.00 0.00 0.00 23 1007.6
20260503231517 28 253 1.6 4.8 0.00 0.00 0.00 23 1007.9
20260503230034 28 71 0.0 3.2 0.00 0.00 0.00 22 1007.9
20260503224515 27 277 0.0 3.2 0.00 0.00 0.00 24 1008.3
20260503223011 27 304 0.0 3.2 0.00 0.00 0.00 24 1008.5
20260503221509 27 285 0.0 1.6 0.00 0.00 0.00 24 1008.8
20260503220009 27 346 0.0 3.2 0.00 0.00 0.00 24 1009.0
20260503214510 27 278 0.0 4.8 0.00 0.00 0.00 24 1009.3
20260503213002 27 105 0.0 4.8 0.00 0.00 0.00 24 1009.6
20260503211501 27 178 0.0 1.6 0.00 0.00 0.00 24 1009.7
20260503210059 27 178 0.0 3.2 0.00 0.00 0.00 24 1010.0
20260503204619 27 209 0.0 6.4 0.00 0.00 0.00 25 1010.2
20260503203100 27 298 0.0 4.8 0.00 0.00 0.00 24 1010.4